Time,TemperatureF,DewpointF,PressureIn,WindDirection,WindDirectionDegrees,WindSpeedMPH,WindSpeedGustMPH,Humidity,HourlyPrecipIn,Conditions,Clouds,dailyrainin,SoftwareType,DateUTC
2013-01-29 00:00:00,41.2,39.6,30.14,SSE,149,0.0,0.0,94,0.00,,,0.42,Wunderground v.1.15,2013-01-29 08:00:00,
2013-01-29 00:06:00,41.2,39.6,30.15,SSE,150,0.0,0.0,94,0.00,,,0.00,Wunderground v.1.15,2013-01-29 08:06:00,
2013-01-29 00:12:00,41.2,39.6,30.14,SSE,150,0.0,0.0,94,0.00,,,0.00,Wunderground v.1.15,2013-01-29 08:12:00,
2013-01-29 00:18:00,41.3,39.7,30.15,SSE,150,0.0,0.0,94,0.00,,,0.00,Wunderground v.1.15,2013-01-29 08:18:00,
2013-01-29 00:24:00,41.3,39.7,30.15,SSE,150,0.0,0.0,94,0.00,,,0.00,Wunderground v.1.15,2013-01-29 08:24:00,
2013-01-29 00:30:00,41.2,39.6,30.15,SSE,150,0.0,0.0,94,0.00,,,0.00,Wunderground v.1.15,2013-01-29 08:30:00,
2013-01-29 00:36:00,41.1,39.5,30.15,SSE,149,0.0,0.0,94,0.00,,,0.00,Wunderground v.1.15,2013-01-29 08:36:00,
2013-01-29 00:42:00,41.2,39.6,30.15,SSE,149,0.0,0.0,94,0.00,,,0.00,Wunderground v.1.15,2013-01-29 08:42:00,
2013-01-29 00:48:00,41.1,39.5,30.15,SSE,149,0.0,0.0,94,0.00,,,0.00,Wunderground v.1.15,2013-01-29 08:48:00,
2013-01-29 00:54:00,41.1,39.5,30.15,SSE,150,0.0,0.0,94,0.00,,,0.00,Wunderground v.1.15,2013-01-29 08:54:00,
2013-01-29 01:00:00,41.1,39.5,30.15,SSE,150,0.0,0.0,94,0.00,,,0.00,Wunderground v.1.15,2013-01-29 09:00:00,
2013-01-29 01:06:00,41.1,39.5,30.15,SSE,149,0.0,0.0,94,0.00,,,0.00,Wunderground v.1.15,2013-01-29 09:06:00,
2013-01-29 01:12:00,41.1,39.5,30.16,SSE,150,0.0,0.0,94,0.00,,,0.00,Wunderground v.1.15,2013-01-29 09:12:00,
2013-01-29 01:18:00,41.1,39.5,30.15,SSE,150,0.0,1.0,94,0.00,,,0.00,Wunderground v.1.15,2013-01-29 09:18:00,
2013-01-29 01:24:00,41.1,39.5,30.15,SSE,150,0.0,0.0,94,0.00,,,0.00,Wunderground v.1.15,2013-01-29 09:24:00,
2013-01-29 01:30:00,41.3,39.7,30.15,SSE,150,0.0,0.0,94,0.00,,,0.00,Wunderground v.1.15,2013-01-29 09:30:00,
2013-01-29 01:36:00,41.3,39.7,30.15,SSE,150,0.0,0.0,94,0.00,,,0.00,Wunderground v.1.15,2013-01-29 09:36:00,
2013-01-29 01:42:00,41.3,39.7,30.15,SSE,149,0.0,0.0,94,0.00,,,0.00,Wunderground v.1.15,2013-01-29 09:42:00,
2013-01-29 01:48:00,41.3,39.7,30.15,SSE,149,0.0,0.0,94,0.00,,,0.00,Wunderground v.1.15,2013-01-29 09:48:00,
2013-01-29 01:54:00,41.4,39.8,30.15,SSE,150,0.0,0.0,94,0.00,,,0.00,Wunderground v.1.15,2013-01-29 09:54:00,
2013-01-29 02:00:00,41.4,39.8,30.15,SSE,149,0.0,0.0,94,0.00,,,0.00,Wunderground v.1.15,2013-01-29 10:00:00,
2013-01-29 02:06:00,41.3,39.7,30.15,SSE,150,0.0,0.0,94,0.00,,,0.00,Wunderground v.1.15,2013-01-29 10:06:00,
2013-01-29 02:12:00,41.2,39.6,30.16,SSE,149,0.0,1.0,94,0.00,,,0.00,Wunderground v.1.15,2013-01-29 10:12:00,
2013-01-29 02:18:00,41.2,39.6,30.16,SSE,149,0.0,1.0,94,0.00,,,0.00,Wunderground v.1.15,2013-01-29 10:18:00,
2013-01-29 02:24:00,41.1,39.5,30.16,SSE,149,0.0,0.0,94,0.00,,,0.00,Wunderground v.1.15,2013-01-29 10:24:00,
2013-01-29 02:30:00,41.2,39.6,30.16,SSE,150,0.0,0.0,94,0.00,,,0.00,Wunderground v.1.15,2013-01-29 10:30:00,
2013-01-29 02:36:00,41.3,39.7,30.17,SSE,150,0.0,0.0,94,0.00,,,0.00,Wunderground v.1.15,2013-01-29 10:36:00,
2013-01-29 02:42:00,41.3,39.7,30.17,SSE,149,0.0,0.0,94,0.00,,,0.00,Wunderground v.1.15,2013-01-29 10:42:00,
2013-01-29 02:48:00,41.3,39.7,30.17,SSE,150,0.0,0.0,94,0.00,,,0.00,Wunderground v.1.15,2013-01-29 10:48:00,
2013-01-29 02:54:00,41.3,39.7,30.17,SSE,150,0.0,0.0,94,0.00,,,0.00,Wunderground v.1.15,2013-01-29 10:54:00,
2013-01-29 03:00:00,41.3,39.7,30.17,SSE,150,0.0,0.0,94,0.00,,,0.00,Wunderground v.1.15,2013-01-29 11:00:00,
2013-01-29 03:06:00,41.3,39.7,30.17,SSE,150,0.0,0.0,94,0.00,,,0.00,Wunderground v.1.15,2013-01-29 11:06:00,
2013-01-29 03:12:00,41.3,39.7,30.17,SSE,149,0.0,0.0,94,0.00,,,0.00,Wunderground v.1.15,2013-01-29 11:12:00,
2013-01-29 03:18:00,41.4,39.8,30.17,SSE,150,0.0,0.0,94,0.00,,,0.00,Wunderground v.1.15,2013-01-29 11:18:00,
2013-01-29 03:24:00,41.3,39.7,30.17,SSE,149,0.0,0.0,94,0.00,,,0.01,Wunderground v.1.15,2013-01-29 11:24:00,
2013-01-29 03:30:00,41.3,39.7,30.18,SSE,149,0.0,0.0,94,0.00,,,0.01,Wunderground v.1.15,2013-01-29 11:30:00,
2013-01-29 03:36:00,41.4,39.8,30.18,SSE,150,0.0,0.0,94,0.00,,,0.01,Wunderground v.1.15,2013-01-29 11:36:00,
2013-01-29 03:42:00,41.4,39.8,30.18,SSE,150,0.0,0.0,94,0.00,,,0.01,Wunderground v.1.15,2013-01-29 11:42:00,
2013-01-29 03:48:00,41.4,39.8,30.18,SSE,150,0.0,0.0,94,0.00,,,0.01,Wunderground v.1.15,2013-01-29 11:48:00,
2013-01-29 03:54:00,41.4,39.8,30.18,SSE,149,0.0,0.0,94,0.00,,,0.01,Wunderground v.1.15,2013-01-29 11:54:00,
2013-01-29 04:00:00,41.4,39.8,30.18,SSE,150,0.0,0.0,94,0.00,,,0.01,Wunderground v.1.15,2013-01-29 12:00:00,
2013-01-29 04:06:00,41.5,39.9,30.18,SSE,149,0.0,0.0,94,0.00,,,0.01,Wunderground v.1.15,2013-01-29 12:06:00,
2013-01-29 04:12:00,41.5,39.9,30.18,SSE,150,0.0,0.0,94,0.00,,,0.01,Wunderground v.1.15,2013-01-29 12:12:00,
2013-01-29 04:18:00,41.5,39.9,30.18,SSE,150,0.0,0.0,94,0.00,,,0.01,Wunderground v.1.15,2013-01-29 12:18:00,
2013-01-29 04:24:00,41.5,39.9,30.18,SSE,150,0.0,0.0,94,0.00,,,0.01,Wunderground v.1.15,2013-01-29 12:24:00,
2013-01-29 04:30:00,41.5,39.9,30.19,SSE,150,0.0,0.0,94,0.00,,,0.01,Wunderground v.1.15,2013-01-29 12:30:00,
2013-01-29 04:36:00,41.5,39.9,30.18,SSE,150,0.0,0.0,94,0.00,,,0.01,Wunderground v.1.15,2013-01-29 12:36:00,
2013-01-29 04:42:00,41.6,40.0,30.18,SSE,150,0.0,0.0,94,0.00,,,0.01,Wunderground v.1.15,2013-01-29 12:42:00,
2013-01-29 04:47:00,41.7,40.1,30.19,SSE,150,0.0,0.0,94,0.00,,,0.01,Wunderground v.1.15,2013-01-29 12:47:00,
2013-01-29 04:54:00,41.9,40.3,30.19,SSE,150,0.0,0.0,94,0.00,,,0.01,Wunderground v.1.15,2013-01-29 12:54:00,
2013-01-29 05:00:00,41.9,40.3,30.19,SSE,150,0.0,0.0,94,0.00,,,0.01,Wunderground v.1.15,2013-01-29 13:00:00,
2013-01-29 05:06:00,42.0,40.4,30.19,SSE,150,0.0,0.0,94,0.00,,,0.01,Wunderground v.1.15,2013-01-29 13:06:00,
2013-01-29 05:12:00,42.0,40.4,30.19,SSE,149,0.0,0.0,94,0.00,,,0.01,Wunderground v.1.15,2013-01-29 13:12:00,
2013-01-29 05:18:00,42.2,40.6,30.19,SSE,150,0.0,0.0,94,0.00,,,0.01,Wunderground v.1.15,2013-01-29 13:18:00,
2013-01-29 05:24:00,42.2,40.6,30.19,SSE,149,0.0,0.0,94,0.00,,,0.01,Wunderground v.1.15,2013-01-29 13:24:00,
2013-01-29 05:30:00,42.2,40.6,30.20,SSE,149,0.0,0.0,94,0.00,,,0.01,Wunderground v.1.15,2013-01-29 13:30:00,
2013-01-29 05:36:00,42.2,40.6,30.20,SSE,149,0.0,0.0,94,0.00,,,0.01,Wunderground v.1.15,2013-01-29 13:36:00,
2013-01-29 05:42:00,42.2,40.6,30.20,SSE,149,0.0,0.0,94,0.00,,,0.01,Wunderground v.1.15,2013-01-29 13:42:00,
2013-01-29 05:48:00,42.2,40.6,30.21,SSE,150,0.0,0.0,94,0.00,,,0.01,Wunderground v.1.15,2013-01-29 13:48:00,
2013-01-29 05:54:00,42.1,40.5,30.21,SSE,150,0.0,0.0,94,0.00,,,0.01,Wunderground v.1.15,2013-01-29 13:54:00,
2013-01-29 06:00:00,42.1,40.5,30.21,SSE,150,0.0,0.0,94,0.00,,,0.01,Wunderground v.1.15,2013-01-29 14:00:00,
2013-01-29 06:05:00,42.2,40.6,30.21,SSE,150,0.0,0.0,94,0.00,,,0.01,Wunderground v.1.15,2013-01-29 14:05:00,
2013-01-29 06:12:00,42.2,40.6,30.21,SSE,150,0.0,0.0,94,0.00,,,0.01,Wunderground v.1.15,2013-01-29 14:12:00,
2013-01-29 06:18:00,42.2,40.6,30.22,SSE,150,0.0,0.0,94,0.00,,,0.01,Wunderground v.1.15,2013-01-29 14:18:00,
2013-01-29 06:24:00,42.3,40.7,30.22,SSE,150,0.0,1.0,94,0.00,,,0.01,Wunderground v.1.15,2013-01-29 14:24:00,
2013-01-29 06:30:00,42.3,40.7,30.22,SSE,150,0.0,0.0,94,0.00,,,0.01,Wunderground v.1.15,2013-01-29 14:30:00,
2013-01-29 06:36:00,42.2,40.6,30.22,SSE,149,0.0,0.0,94,0.00,,,0.01,Wunderground v.1.15,2013-01-29 14:36:00,
2013-01-29 06:42:00,42.2,40.6,30.23,SSE,150,0.0,0.0,94,0.00,,,0.01,Wunderground v.1.15,2013-01-29 14:42:00,
2013-01-29 06:48:00,42.1,40.5,30.23,SSE,149,0.0,0.0,94,0.00,,,0.01,Wunderground v.1.15,2013-01-29 14:48:00,
2013-01-29 06:54:00,42.1,40.5,30.23,SSE,149,0.0,0.0,94,0.00,,,0.01,Wunderground v.1.15,2013-01-29 14:54:00,
2013-01-29 07:00:00,42.1,40.5,30.23,SSE,150,0.0,0.0,94,0.00,,,0.01,Wunderground v.1.15,2013-01-29 15:00:00,
2013-01-29 07:06:00,42.2,40.6,30.24,SSE,150,0.0,0.0,94,0.00,,,0.01,Wunderground v.1.15,2013-01-29 15:06:00,
2013-01-29 07:11:00,42.3,40.7,30.24,SSE,149,0.0,0.0,94,0.00,,,0.01,Wunderground v.1.15,2013-01-29 15:11:00,
2013-01-29 07:18:00,42.4,40.8,30.23,SSE,150,0.0,0.0,94,0.00,,,0.01,Wunderground v.1.15,2013-01-29 15:18:00,
2013-01-29 07:44:00,42.3,40.7,30.25,SSE,149,0.0,0.0,94,0.00,,,0.01,Wunderground v.1.15,2013-01-29 15:44:00,
2013-01-29 07:50:00,42.3,40.7,30.25,SSE,150,0.0,0.0,94,0.00,,,0.02,Wunderground v.1.15,2013-01-29 15:50:00,
2013-01-29 07:56:00,42.3,40.7,30.25,SSE,150,0.0,0.0,94,0.07,,,0.03,Wunderground v.1.15,2013-01-29 15:56:00,
2013-01-29 08:02:00,42.4,40.8,30.26,SSE,150,0.0,0.0,94,0.06,,,0.03,Wunderground v.1.15,2013-01-29 16:02:00,
2013-01-29 08:08:00,42.5,41.2,30.26,SSE,150,0.0,0.0,95,0.04,,,0.03,Wunderground v.1.15,2013-01-29 16:08:00,
2013-01-29 08:13:00,42.6,41.3,30.26,SSE,150,0.0,0.0,95,0.00,,,0.03,Wunderground v.1.15,2013-01-29 16:13:00,
2013-01-29 08:20:00,42.9,41.6,30.27,SSE,150,0.0,0.0,95,0.00,,,0.03,Wunderground v.1.15,2013-01-29 16:20:00,
2013-01-29 08:26:00,43.0,41.4,30.27,SSE,149,0.0,0.0,94,0.00,,,0.03,Wunderground v.1.15,2013-01-29 16:26:00,
2013-01-29 08:32:00,43.1,41.5,30.27,SSE,150,0.0,0.0,94,0.00,,,0.03,Wunderground v.1.15,2013-01-29 16:32:00,
2013-01-29 08:38:00,43.3,42.0,30.28,SSE,150,0.0,0.0,95,0.00,,,0.03,Wunderground v.1.15,2013-01-29 16:38:00,
2013-01-29 08:44:00,43.3,42.0,30.28,SSE,149,0.0,0.0,95,0.00,,,0.03,Wunderground v.1.15,2013-01-29 16:44:00,
2013-01-29 08:50:00,43.4,42.1,30.28,SSE,150,0.0,0.0,95,0.00,,,0.03,Wunderground v.1.15,2013-01-29 16:50:00,
2013-01-29 08:55:00,43.4,42.1,30.28,SSE,150,1.0,2.0,95,0.00,,,0.03,Wunderground v.1.15,2013-01-29 16:55:00,
2013-01-29 09:02:00,43.4,42.1,30.29,SSE,149,1.0,1.0,95,0.00,,,0.03,Wunderground v.1.15,2013-01-29 17:02:00,
2013-01-29 09:08:00,43.5,42.2,30.29,SSE,150,0.0,1.0,95,0.00,,,0.04,Wunderground v.1.15,2013-01-29 17:08:00,
2013-01-29 09:14:00,43.6,42.3,30.29,SSE,149,0.0,0.0,95,0.00,,,0.04,Wunderground v.1.15,2013-01-29 17:14:00,
2013-01-29 09:20:00,43.7,42.4,30.30,SSE,150,0.0,0.0,95,0.00,,,0.04,Wunderground v.1.15,2013-01-29 17:20:00,
2013-01-29 09:25:00,43.8,42.5,30.30,SSE,150,0.0,0.0,95,0.00,,,0.04,Wunderground v.1.15,2013-01-29 17:25:00,
2013-01-29 09:32:00,43.9,42.6,30.30,SSE,150,0.0,0.0,95,0.00,,,0.04,Wunderground v.1.15,2013-01-29 17:32:00,
2013-01-29 09:38:00,43.9,42.6,30.30,SSE,150,0.0,0.0,95,0.00,,,0.04,Wunderground v.1.15,2013-01-29 17:38:00,
2013-01-29 09:44:00,44.0,42.7,30.31,SSE,149,0.0,0.0,95,0.00,,,0.04,Wunderground v.1.15,2013-01-29 17:44:00,
2013-01-29 09:50:00,44.0,42.7,30.31,SSE,150,0.0,0.0,95,0.00,,,0.04,Wunderground v.1.15,2013-01-29 17:50:00,
2013-01-29 09:56:00,44.1,42.8,30.31,SSE,150,0.0,0.0,95,0.00,,,0.04,Wunderground v.1.15,2013-01-29 17:56:00,
2013-01-29 10:02:00,44.2,42.9,30.31,SSE,149,0.0,0.0,95,0.00,,,0.04,Wunderground v.1.15,2013-01-29 18:02:00,
2013-01-29 10:08:00,44.3,43.0,30.31,SSE,150,0.0,0.0,95,0.00,,,0.04,Wunderground v.1.15,2013-01-29 18:08:00,
2013-01-29 10:14:00,44.4,43.1,30.32,SSE,149,0.0,2.0,95,0.00,,,0.04,Wunderground v.1.15,2013-01-29 18:14:00,
2013-01-29 10:20:00,44.5,43.2,30.32,SSE,150,1.0,2.0,95,0.00,,,0.04,Wunderground v.1.15,2013-01-29 18:20:00,
2013-01-29 10:26:00,44.6,43.3,30.32,SSE,149,1.0,2.0,95,0.00,,,0.04,Wunderground v.1.15,2013-01-29 18:26:00,
2013-01-29 10:32:00,44.7,43.4,30.33,SSE,150,1.0,2.0,95,0.00,,,0.04,Wunderground v.1.15,2013-01-29 18:32:00,
2013-01-29 10:37:00,44.8,43.5,30.33,SSE,149,1.0,2.0,95,0.00,,,0.04,Wunderground v.1.15,2013-01-29 18:37:00,
2013-01-29 10:44:00,45.0,43.7,30.33,SSE,150,1.0,2.0,95,0.00,,,0.04,Wunderground v.1.15,2013-01-29 18:44:00,
2013-01-29 10:50:00,45.0,43.7,30.33,SSE,150,2.0,3.0,95,0.00,,,0.04,Wunderground v.1.15,2013-01-29 18:50:00,
2013-01-29 10:56:00,45.0,43.7,30.34,SSE,150,2.0,3.0,95,0.00,,,0.04,Wunderground v.1.15,2013-01-29 18:56:00,
2013-01-29 11:02:00,45.1,43.8,30.34,SSE,150,1.0,2.0,95,0.00,,,0.04,Wunderground v.1.15,2013-01-29 19:02:00,
2013-01-29 11:08:00,45.2,43.9,30.34,SSE,149,1.0,2.0,95,0.00,,,0.04,Wunderground v.1.15,2013-01-29 19:08:00,
2013-01-29 11:14:00,45.4,44.1,30.34,SSE,150,0.0,3.0,95,0.00,,,0.04,Wunderground v.1.15,2013-01-29 19:14:00,
2013-01-29 11:20:00,45.4,44.1,30.35,SSE,150,1.0,2.0,95,0.00,,,0.04,Wunderground v.1.15,2013-01-29 19:20:00,
2013-01-29 11:26:00,45.5,44.2,30.34,SSE,150,1.0,2.0,95,0.00,,,0.04,Wunderground v.1.15,2013-01-29 19:26:00,
2013-01-29 11:32:00,45.5,44.2,30.34,SSW,192,2.0,5.0,95,0.00,,,0.04,Wunderground v.1.15,2013-01-29 19:32:00,
2013-01-29 11:38:00,45.4,44.1,30.35,South,191,2.0,5.0,95,0.00,,,0.04,Wunderground v.1.15,2013-01-29 19:38:00,
2013-01-29 11:43:00,45.5,44.2,30.34,South,186,2.0,3.0,95,0.00,,,0.04,Wunderground v.1.15,2013-01-29 19:43:00,
2013-01-29 11:50:00,45.5,44.2,30.34,South,183,2.0,2.0,95,0.00,,,0.04,Wunderground v.1.15,2013-01-29 19:50:00,
2013-01-29 11:56:00,45.6,44.3,30.34,South,186,1.0,2.0,95,0.00,,,0.04,Wunderground v.1.15,2013-01-29 19:56:00,
2013-01-29 12:00:00,45.6,44.3,30.35,South,186,1.0,1.0,95,0.00,,,0.04,Wunderground v.1.15,2013-01-29 20:00:00,
2013-01-29 12:06:00,45.7,44.4,30.35,South,186,1.0,3.0,95,0.00,,,0.04,Wunderground v.1.15,2013-01-29 20:06:00,
2013-01-29 12:12:00,45.7,44.4,30.35,South,186,1.0,1.0,95,0.00,,,0.04,Wunderground v.1.15,2013-01-29 20:12:00,
2013-01-29 12:18:00,45.7,44.4,30.35,South,188,1.0,3.0,95,0.00,,,0.04,Wunderground v.1.15,2013-01-29 20:18:00,
2013-01-29 12:24:00,45.7,44.4,30.35,South,188,2.0,3.0,95,0.00,,,0.04,Wunderground v.1.15,2013-01-29 20:24:00,
2013-01-29 12:30:00,45.8,44.4,30.35,South,188,1.0,2.0,95,0.00,,,0.04,Wunderground v.1.15,2013-01-29 20:30:00,
2013-01-29 12:36:00,45.8,44.4,30.35,South,188,2.0,2.0,95,0.00,,,0.04,Wunderground v.1.15,2013-01-29 20:36:00,
2013-01-29 12:42:00,45.8,44.4,30.35,South,188,2.0,3.0,95,0.00,,,0.04,Wunderground v.1.15,2013-01-29 20:42:00,
2013-01-29 12:48:00,45.9,44.5,30.35,South,188,1.0,3.0,95,0.00,,,0.04,Wunderground v.1.15,2013-01-29 20:48:00,
2013-01-29 12:54:00,46.0,44.6,30.35,South,188,1.0,1.0,95,0.00,,,0.04,Wunderground v.1.15,2013-01-29 20:54:00,
2013-01-29 13:00:00,46.0,44.6,30.35,South,188,1.0,1.0,95,0.00,,,0.04,Wunderground v.1.15,2013-01-29 21:00:00,
2013-01-29 13:06:00,46.0,44.6,30.35,South,188,2.0,3.0,95,0.00,,,0.04,Wunderground v.1.15,2013-01-29 21:06:00,
2013-01-29 13:12:00,46.1,44.7,30.35,South,187,1.0,2.0,95,0.00,,,0.04,Wunderground v.1.15,2013-01-29 21:12:00,
2013-01-29 13:18:00,46.1,44.7,30.35,South,188,1.0,2.0,95,0.00,,,0.04,Wunderground v.1.15,2013-01-29 21:18:00,
2013-01-29 13:24:00,46.1,44.7,30.35,South,187,2.0,3.0,95,0.00,,,0.04,Wunderground v.1.15,2013-01-29 21:24:00,
2013-01-29 13:30:00,46.2,44.8,30.35,South,187,1.0,1.0,95,0.00,,,0.04,Wunderground v.1.15,2013-01-29 21:30:00,
2013-01-29 13:36:00,46.2,44.8,30.35,South,187,1.0,1.0,95,0.00,,,0.04,Wunderground v.1.15,2013-01-29 21:36:00,
2013-01-29 13:41:00,46.2,44.8,30.35,South,187,1.0,1.0,95,0.00,,,0.04,Wunderground v.1.15,2013-01-29 21:41:00,
2013-01-29 13:48:00,46.3,44.9,30.35,South,188,1.0,1.0,95,0.00,,,0.04,Wunderground v.1.15,2013-01-29 21:48:00,
2013-01-29 13:54:00,46.3,44.9,30.35,South,188,1.0,1.0,95,0.00,,,0.04,Wunderground v.1.15,2013-01-29 21:54:00,
2013-01-29 14:00:00,46.3,44.9,30.35,SSW,194,2.0,2.0,95,0.00,,,0.04,Wunderground v.1.15,2013-01-29 22:00:00,
2013-01-29 14:06:00,46.3,44.9,30.35,SSW,194,2.0,3.0,95,0.00,,,0.04,Wunderground v.1.15,2013-01-29 22:06:00,
2013-01-29 14:12:00,46.4,45.0,30.35,SSW,194,1.0,1.0,95,0.00,,,0.04,Wunderground v.1.15,2013-01-29 22:12:00,
2013-01-29 14:18:00,46.5,45.1,30.35,SSW,194,1.0,1.0,95,0.00,,,0.04,Wunderground v.1.15,2013-01-29 22:18:00,
2013-01-29 14:24:00,46.5,45.1,30.36,SSW,194,1.0,1.0,95,0.00,,,0.04,Wunderground v.1.15,2013-01-29 22:24:00,
2013-01-29 14:30:00,46.5,45.1,30.36,SSW,194,1.0,2.0,95,0.00,,,0.04,Wunderground v.1.15,2013-01-29 22:30:00,
2013-01-29 14:36:00,46.6,45.2,30.36,SSW,194,0.0,2.0,95,0.00,,,0.04,Wunderground v.1.15,2013-01-29 22:36:00,
2013-01-29 14:42:00,46.6,45.2,30.36,SSW,194,1.0,3.0,95,0.00,,,0.04,Wunderground v.1.15,2013-01-29 22:42:00,
2013-01-29 14:48:00,46.5,45.1,30.36,SSW,194,1.0,3.0,95,0.00,,,0.04,Wunderground v.1.15,2013-01-29 22:48:00,
2013-01-29 14:54:00,46.6,45.2,30.36,SSW,194,1.0,1.0,95,0.00,,,0.04,Wunderground v.1.15,2013-01-29 22:54:00,
2013-01-29 15:00:00,46.7,45.3,30.36,SSW,192,1.0,3.0,95,0.00,,,0.04,Wunderground v.1.15,2013-01-29 23:00:00,
2013-01-29 15:06:00,46.6,45.2,30.36,South,172,1.0,3.0,95,0.00,,,0.04,Wunderground v.1.15,2013-01-29 23:06:00,
2013-01-29 15:12:00,46.6,45.2,30.37,South,172,1.0,2.0,95,0.00,,,0.04,Wunderground v.1.15,2013-01-29 23:12:00,
2013-01-29 15:18:00,46.7,45.3,30.37,South,172,1.0,2.0,95,0.00,,,0.04,Wunderground v.1.15,2013-01-29 23:18:00,
2013-01-29 15:24:00,46.7,45.3,30.37,South,172,1.0,2.0,95,0.00,,,0.04,Wunderground v.1.15,2013-01-29 23:24:00,
2013-01-29 15:30:00,46.7,45.3,30.37,South,172,1.0,1.0,95,0.00,,,0.04,Wunderground v.1.15,2013-01-29 23:30:00,
2013-01-29 15:36:00,46.7,45.3,30.37,South,172,0.0,1.0,95,0.00,,,0.05,Wunderground v.1.15,2013-01-29 23:36:00,
2013-01-29 15:42:00,46.7,45.3,30.37,South,172,1.0,2.0,95,0.00,,,0.05,Wunderground v.1.15,2013-01-29 23:42:00,
2013-01-29 15:48:00,46.7,45.3,30.37,South,172,1.0,2.0,95,0.00,,,0.05,Wunderground v.1.15,2013-01-29 23:48:00,
2013-01-29 15:54:00,46.7,45.3,30.37,South,172,0.0,1.0,95,0.00,,,0.05,Wunderground v.1.15,2013-01-29 23:54:00,
2013-01-29 16:00:00,46.7,45.3,30.37,South,172,0.0,0.0,95,0.00,,,0.06,Wunderground v.1.15,2013-01-30 00:00:00,
2013-01-29 16:06:00,46.7,45.3,30.37,South,172,1.0,1.0,95,0.00,,,0.06,Wunderground v.1.15,2013-01-30 00:06:00,
2013-01-29 16:12:00,46.8,45.4,30.37,South,172,0.0,0.0,95,0.05,,,0.07,Wunderground v.1.15,2013-01-30 00:12:00,
2013-01-29 16:18:00,46.7,45.3,30.37,South,172,0.0,1.0,95,0.07,,,0.08,Wunderground v.1.15,2013-01-30 00:18:00,
2013-01-29 16:24:00,46.8,45.4,30.38,South,172,0.0,2.0,95,0.07,,,0.08,Wunderground v.1.15,2013-01-30 00:24:00,
2013-01-29 16:30:00,46.7,45.3,30.38,South,172,1.0,1.0,95,0.04,,,0.08,Wunderground v.1.15,2013-01-30 00:30:00,
2013-01-29 16:36:00,46.8,45.4,30.38,South,172,1.0,2.0,95,0.00,,,0.08,Wunderground v.1.15,2013-01-30 00:36:00,
2013-01-29 16:42:00,46.7,45.3,30.39,South,172,1.0,1.0,95,0.00,,,0.08,Wunderground v.1.15,2013-01-30 00:42:00,
2013-01-29 16:48:00,46.7,45.3,30.39,South,172,0.0,1.0,95,0.00,,,0.08,Wunderground v.1.15,2013-01-30 00:48:00,
2013-01-29 16:54:00,46.8,45.4,30.39,South,172,0.0,0.0,95,0.00,,,0.08,Wunderground v.1.15,2013-01-30 00:54:00,
2013-01-29 17:00:00,46.7,45.3,30.39,South,172,1.0,1.0,95,0.00,,,0.08,Wunderground v.1.15,2013-01-30 01:00:00,
2013-01-29 17:06:00,46.7,45.3,30.39,South,172,0.0,1.0,95,0.00,,,0.08,Wunderground v.1.15,2013-01-30 01:06:00,
2013-01-29 17:12:00,46.7,45.3,30.39,South,172,0.0,0.0,95,0.00,,,0.08,Wunderground v.1.15,2013-01-30 01:12:00,
2013-01-29 17:18:00,46.7,45.3,30.39,South,172,0.0,0.0,95,0.00,,,0.08,Wunderground v.1.15,2013-01-30 01:18:00,
2013-01-29 17:24:00,46.7,45.3,30.39,South,172,0.0,0.0,95,0.00,,,0.08,Wunderground v.1.15,2013-01-30 01:24:00,
2013-01-29 17:30:00,46.7,45.3,30.39,South,172,0.0,0.0,95,0.00,,,0.08,Wunderground v.1.15,2013-01-30 01:30:00,
2013-01-29 17:36:00,46.6,45.2,30.39,South,172,0.0,0.0,95,0.00,,,0.08,Wunderground v.1.15,2013-01-30 01:36:00,
2013-01-29 17:42:00,46.6,45.2,30.39,South,172,0.0,0.0,95,0.00,,,0.08,Wunderground v.1.15,2013-01-30 01:42:00,
2013-01-29 17:48:00,46.5,45.1,30.39,South,172,0.0,1.0,95,0.00,,,0.08,Wunderground v.1.15,2013-01-30 01:48:00,
2013-01-29 17:54:00,46.5,45.1,30.40,South,172,0.0,0.0,95,0.00,,,0.08,Wunderground v.1.15,2013-01-30 01:54:00,
2013-01-29 18:00:00,46.5,45.1,30.40,South,172,0.0,0.0,95,0.00,,,0.08,Wunderground v.1.15,2013-01-30 02:00:00,
2013-01-29 18:06:00,46.5,45.1,30.40,South,172,0.0,0.0,95,0.00,,,0.08,Wunderground v.1.15,2013-01-30 02:06:00,
2013-01-29 18:12:00,46.5,45.1,30.39,South,172,0.0,0.0,95,0.00,,,0.08,Wunderground v.1.15,2013-01-30 02:12:00,
2013-01-29 18:18:00,46.4,45.0,30.39,South,172,0.0,0.0,95,0.00,,,0.08,Wunderground v.1.15,2013-01-30 02:18:00,
2013-01-29 18:24:00,46.4,45.0,30.40,South,172,0.0,0.0,95,0.00,,,0.08,Wunderground v.1.15,2013-01-30 02:24:00,
2013-01-29 18:30:00,46.4,45.0,30.40,South,172,0.0,0.0,95,0.00,,,0.08,Wunderground v.1.15,2013-01-30 02:30:00,
2013-01-29 18:36:00,46.4,45.0,30.40,South,172,0.0,0.0,95,0.00,,,0.08,Wunderground v.1.15,2013-01-30 02:36:00,
2013-01-29 18:42:00,46.4,45.0,30.40,South,172,0.0,0.0,95,0.00,,,0.08,Wunderground v.1.15,2013-01-30 02:42:00,
2013-01-29 18:48:00,46.4,45.0,30.40,South,172,0.0,0.0,95,0.00,,,0.08,Wunderground v.1.15,2013-01-30 02:48:00,
2013-01-29 18:54:00,46.3,44.9,30.40,South,172,0.0,0.0,95,0.00,,,0.08,Wunderground v.1.15,2013-01-30 02:54:00,
2013-01-29 19:00:00,46.3,44.9,30.40,South,172,0.0,0.0,95,0.00,,,0.08,Wunderground v.1.15,2013-01-30 03:00:00,
2013-01-29 19:06:00,46.3,44.9,30.40,South,172,0.0,0.0,95,0.00,,,0.08,Wunderground v.1.15,2013-01-30 03:06:00,
2013-01-29 19:12:00,46.3,44.9,30.40,South,172,0.0,0.0,95,0.00,,,0.08,Wunderground v.1.15,2013-01-30 03:12:00,
2013-01-29 19:18:00,46.2,44.8,30.40,South,172,0.0,0.0,95,0.00,,,0.08,Wunderground v.1.15,2013-01-30 03:18:00,
2013-01-29 19:24:00,46.2,44.8,30.40,South,172,0.0,0.0,95,0.00,,,0.08,Wunderground v.1.15,2013-01-30 03:24:00,
2013-01-29 19:30:00,46.2,44.8,30.40,South,172,0.0,0.0,95,0.00,,,0.08,Wunderground v.1.15,2013-01-30 03:30:00,
2013-01-29 19:36:00,46.2,44.8,30.40,South,172,0.0,0.0,95,0.00,,,0.08,Wunderground v.1.15,2013-01-30 03:36:00,
2013-01-29 19:42:00,46.1,44.7,30.41,South,172,0.0,0.0,95,0.00,,,0.08,Wunderground v.1.15,2013-01-30 03:42:00,
2013-01-29 19:48:00,46.1,44.7,30.41,South,172,0.0,0.0,95,0.00,,,0.08,Wunderground v.1.15,2013-01-30 03:48:00,
2013-01-29 19:54:00,46.1,44.7,30.41,South,172,0.0,0.0,95,0.00,,,0.08,Wunderground v.1.15,2013-01-30 03:54:00,
2013-01-29 20:00:00,46.1,44.7,30.41,South,172,0.0,0.0,95,0.00,,,0.08,Wunderground v.1.15,2013-01-30 04:00:00,
2013-01-29 20:06:00,46.0,44.6,30.41,South,172,0.0,0.0,95,0.00,,,0.08,Wunderground v.1.15,2013-01-30 04:06:00,
2013-01-29 20:12:00,46.0,44.6,30.40,South,172,0.0,0.0,95,0.00,,,0.08,Wunderground v.1.15,2013-01-30 04:12:00,
2013-01-29 20:18:00,45.9,44.5,30.41,South,172,0.0,0.0,95,0.00,,,0.08,Wunderground v.1.15,2013-01-30 04:18:00,
2013-01-29 20:24:00,45.9,44.5,30.40,South,172,0.0,0.0,95,0.00,,,0.08,Wunderground v.1.15,2013-01-30 04:24:00,
2013-01-29 20:30:00,45.8,44.4,30.40,South,172,0.0,0.0,95,0.00,,,0.08,Wunderground v.1.15,2013-01-30 04:30:00,
2013-01-29 20:36:00,45.6,44.3,30.40,South,172,0.0,0.0,95,0.00,,,0.08,Wunderground v.1.15,2013-01-30 04:36:00,
2013-01-29 20:42:00,45.5,43.9,30.40,South,172,0.0,0.0,94,0.00,,,0.08,Wunderground v.1.15,2013-01-30 04:42:00,
2013-01-29 20:48:00,45.5,44.2,30.40,South,172,0.0,0.0,95,0.00,,,0.08,Wunderground v.1.15,2013-01-30 04:48:00,
2013-01-29 20:54:00,45.4,44.1,30.39,South,172,0.0,0.0,95,0.00,,,0.08,Wunderground v.1.15,2013-01-30 04:54:00,
2013-01-29 21:04:00,45.4,44.1,30.39,South,172,0.0,0.0,95,0.00,,,0.08,Wunderground v.1.15,2013-01-30 05:04:00,
2013-01-29 21:06:00,45.3,44.0,30.39,South,172,0.0,0.0,95,0.00,,,0.08,Wunderground v.1.15,2013-01-30 05:06:00,
2013-01-29 21:10:00,45.3,44.0,30.39,South,172,0.0,0.0,95,0.00,,,0.08,Wunderground v.1.15,2013-01-30 05:10:00,
2013-01-29 21:16:00,45.2,43.9,30.39,South,172,0.0,0.0,95,0.00,,,0.08,Wunderground v.1.15,2013-01-30 05:16:00,
2013-01-29 21:22:00,45.2,43.9,30.39,South,172,0.0,0.0,95,0.00,,,0.08,Wunderground v.1.15,2013-01-30 05:22:00,
2013-01-29 21:28:00,45.2,43.9,30.39,South,172,0.0,0.0,95,0.00,,,0.08,Wunderground v.1.15,2013-01-30 05:28:00,
2013-01-29 21:34:00,45.3,44.0,30.40,South,172,0.0,0.0,95,0.00,,,0.08,Wunderground v.1.15,2013-01-30 05:34:00,
2013-01-29 21:40:00,45.2,43.9,30.39,South,172,0.0,0.0,95,0.00,,,0.08,Wunderground v.1.15,2013-01-30 05:40:00,
2013-01-29 21:46:00,45.2,43.9,30.39,South,172,0.0,0.0,95,0.00,,,0.08,Wunderground v.1.15,2013-01-30 05:46:00,
2013-01-29 21:52:00,45.2,43.9,30.39,South,172,0.0,0.0,95,0.00,,,0.08,Wunderground v.1.15,2013-01-30 05:52:00,
2013-01-29 21:58:00,45.2,43.9,30.39,South,172,0.0,1.0,95,0.00,,,0.08,Wunderground v.1.15,2013-01-30 05:58:00,
2013-01-29 22:04:00,45.1,43.8,30.38,South,172,0.0,1.0,95,0.00,,,0.08,Wunderground v.1.15,2013-01-30 06:04:00,
2013-01-29 22:10:00,45.1,43.8,30.38,South,172,0.0,1.0,95,0.00,,,0.08,Wunderground v.1.15,2013-01-30 06:10:00,
2013-01-29 22:16:00,45.0,43.7,30.38,South,172,0.0,1.0,95,0.00,,,0.08,Wunderground v.1.15,2013-01-30 06:16:00,
2013-01-29 22:22:00,45.0,43.7,30.38,South,172,0.0,0.0,95,0.00,,,0.08,Wunderground v.1.15,2013-01-30 06:22:00,
2013-01-29 22:28:00,44.9,43.6,30.38,South,172,0.0,0.0,95,0.00,,,0.08,Wunderground v.1.15,2013-01-30 06:28:00,
2013-01-29 22:34:00,44.9,43.6,30.38,South,172,0.0,0.0,95,0.00,,,0.08,Wunderground v.1.15,2013-01-30 06:34:00,
2013-01-29 22:40:00,44.8,43.5,30.38,South,172,0.0,0.0,95,0.00,,,0.08,Wunderground v.1.15,2013-01-30 06:40:00,
2013-01-29 22:46:00,44.7,43.4,30.38,South,172,0.0,1.0,95,0.00,,,0.08,Wunderground v.1.15,2013-01-30 06:46:00,
2013-01-29 22:52:00,44.6,43.3,30.38,South,172,0.0,0.0,95,0.00,,,0.08,Wunderground v.1.15,2013-01-30 06:52:00,
2013-01-29 22:58:00,44.5,43.2,30.38,South,172,0.0,0.0,95,0.00,,,0.08,Wunderground v.1.15,2013-01-30 06:58:00,
2013-01-29 23:04:00,44.3,43.0,30.38,South,172,0.0,2.0,95,0.00,,,0.08,Wunderground v.1.15,2013-01-30 07:04:00,
2013-01-29 23:10:00,44.3,43.0,30.38,South,172,0.0,1.0,95,0.00,,,0.08,Wunderground v.1.15,2013-01-30 07:10:00,
2013-01-29 23:16:00,44.2,42.9,30.38,South,172,0.0,1.0,95,0.00,,,0.08,Wunderground v.1.15,2013-01-30 07:16:00,
2013-01-29 23:22:00,44.2,42.9,30.37,South,172,0.0,2.0,95,0.00,,,0.08,Wunderground v.1.15,2013-01-30 07:22:00,
2013-01-29 23:28:00,44.2,42.9,30.38,South,172,0.0,2.0,95,0.00,,,0.08,Wunderground v.1.15,2013-01-30 07:28:00,
2013-01-29 23:34:00,44.2,42.9,30.37,South,172,0.0,0.0,95,0.00,,,0.08,Wunderground v.1.15,2013-01-30 07:34:00,
2013-01-29 23:40:00,44.1,42.8,30.38,South,172,0.0,0.0,95,0.00,,,0.08,Wunderground v.1.15,2013-01-30 07:40:00,
2013-01-29 23:46:00,44.1,42.8,30.37,South,172,0.0,0.0,95,0.00,,,0.08,Wunderground v.1.15,2013-01-30 07:46:00,
2013-01-29 23:52:00,44.0,42.7,30.38,South,172,0.0,0.0,95,0.00,,,0.08,Wunderground v.1.15,2013-01-30 07:52:00,
2013-01-29 23:58:00,44.0,42.7,30.38,South,172,0.0,0.0,95,0.00,,,0.08,Wunderground v.1.15,2013-01-30 07:58:00,